Weather History for West Palm Beach, FL

Change the Weather History Date:

Friday, August 15, 2014

  Actual Average Record
Temperature  
Mean Temperature 83 °F 83 °F  
Max Temperature 92 °F 90 °F 97 °F (1948)
Min Temperature 74 °F 76 °F 70 °F (1962)
Degree Days  
Heating Degree Days 0 0  
Month to date heating degree days 0 0  
Since 1 June heating degree days 0 0  
Since 1 July heating degree days 0 0  
Cooling Degree Days 18 18  
Month to date cooling degree days 285 270  
Year to date cooling degree days 2689 2418  
Since 1 June cooling degree days 1337 1309  
Growing Degree Days 32 (Base 50)    
Moisture  
Dew Point 75 °F    
Average Humidity 79    
Maximum Humidity 94    
Minimum Humidity 64    
Precipitation  
Precipitation 0.68 in 0.26 in 1.86 in (2011)
Month to date precipitation 7.00 3.64  
Year to date precipitation 40.43 36.41  
Snow  
Snow 0.00 in - - ()
Month to date snowfall 0.0  
Since 1 June snowfall 0.0  
Since 1 July snowfall 0.0  
Snow Depth 0.00 in    
Sea Level Pressure  
Sea Level Pressure 30.03 in    
Wind  
Wind Speed 6 mph (SW)    
Max Wind Speed 22 mph    
Max Gust Speed 27 mph    
Visibility 8 miles    
Events Rain , Thunderstorm    
T = Trace of Precipitation, MM = Missing Value Source: NWS Daily Summary

Daily Weather History Graph

Daily Weather History Graph

Search for Another Location

Airport:

Trip Planner

Search our weather history database for the weather conditions in past years. The results will help you decide how hot, cold, wet, or windy it might be!

Date:

Astronomy

Aug. 15, 2014 Rise Set
Actual Time 6:52 AM EDT 7:57 PM EDT
Civil Twilight 6:27 AM EDT 8:21 PM EDT
Nautical Twilight 5:59 AM EDT 8:49 PM EDT
Astronomical Twilight 5:29 AM EDT 9:19 PM EDT
Moon 11:35 PM EDT (8/15) 11:57 AM EDT (8/15)
Length of Visible Light 13h 53m
Length of Day
13h 04m
Waning Gibbous, 69% of the Moon is Illuminated
Aug 15
Waning Gibbous
Aug 17
Last Quarter
Aug 25
New
Sep 2
First Quarter
Sep 8
Full

Hourly Weather History & Observations

Time (EDT) Temp. Heat Index Dew Point Humidity Pressure Visibility Wind Dir Wind Speed Gust Speed Precip Events Conditions
12:53 AM 79.0 °F - 75.9 °F 90% 30.02 in 10.0 mi Calm Calm - N/A   Mostly Cloudy
1:53 AM 79.0 °F - 75.9 °F 90% 30.01 in 10.0 mi South 3.5 mph - N/A   Mostly Cloudy
2:53 AM 79.0 °F - 75.9 °F 90% 29.98 in 10.0 mi SW 4.6 mph - N/A   Overcast
3:53 AM 78.1 °F - 75.9 °F 93% 29.97 in 10.0 mi SW 5.8 mph - N/A   Scattered Clouds
4:53 AM 78.1 °F - 75.9 °F 93% 29.98 in 10.0 mi SSW 4.6 mph - N/A   Scattered Clouds
5:53 AM 78.1 °F - 75.9 °F 93% 30.00 in 10.0 mi NW 4.6 mph - N/A   Mostly Cloudy
6:53 AM 78.1 °F - 75.0 °F 90% 30.01 in 10.0 mi WSW 3.5 mph - N/A   Mostly Cloudy
7:53 AM 80.1 °F 85.8 °F 77.0 °F 90% 30.03 in 10.0 mi Calm Calm - N/A   Mostly Cloudy
8:53 AM 82.9 °F 91.8 °F 77.0 °F 82% 30.04 in 10.0 mi SW 9.2 mph - N/A   Mostly Cloudy
9:53 AM 84.9 °F 95.3 °F 77.0 °F 77% 30.04 in 10.0 mi WSW 8.1 mph - N/A   Mostly Cloudy
10:53 AM 88.0 °F 98.5 °F 75.9 °F 67% 30.05 in 10.0 mi SW 6.9 mph - N/A   Mostly Cloudy
11:53 AM 89.1 °F 99.1 °F 75.0 °F 63% 30.05 in 10.0 mi WSW 8.1 mph - N/A   Mostly Cloudy
12:38 PM 91.0 °F 101.6 °F 75.0 °F 59% 30.02 in 10.0 mi Variable 3.5 mph - N/A Thunderstorm Thunderstorm
12:53 PM 91.0 °F 102.9 °F 75.9 °F 61% 30.02 in 10.0 mi WNW 9.2 mph - N/A Thunderstorm Thunderstorm
1:25 PM 86.0 °F 95.1 °F 75.0 °F 70% 30.01 in 10.0 mi SSE 11.5 mph - N/A Thunderstorm Thunderstorm
1:34 PM 84.9 °F 92.1 °F 73.9 °F 69% 30.02 in 2.0 mi South 20.7 mph - 0.00 in Rain , Thunderstorm Heavy Thunderstorms and Rain
1:53 PM 79.0 °F - 73.9 °F 84% 30.02 in 2.0 mi SSE 15.0 mph - 0.17 in Rain , Thunderstorm Heavy Thunderstorms and Rain
2:02 PM 79.0 °F - 73.9 °F 84% 30.01 in 5.0 mi SE 9.2 mph - 0.01 in Rain , Thunderstorm Thunderstorms and Rain
2:29 PM 75.0 °F - 71.1 °F 87% 30.07 in 3.0 mi West 11.5 mph 26.5 mph 0.09 in Rain , Thunderstorm Thunderstorms and Rain
2:39 PM 75.0 °F - 72.0 °F 90% 30.08 in 2.0 mi SSW 8.1 mph - 0.12 in Rain , Thunderstorm Heavy Thunderstorms and Rain
2:53 PM 73.9 °F - 72.0 °F 93% 30.05 in 2.0 mi SSE 3.5 mph - 0.31 in Rain , Thunderstorm Heavy Thunderstorms and Rain
3:11 PM 73.9 °F - 72.0 °F 93% 30.06 in 3.0 mi Calm Calm - 0.03 in Rain , Thunderstorm Thunderstorms and Rain
3:53 PM 75.0 °F - 73.0 °F 94% 30.05 in 10.0 mi NW 4.6 mph - 0.03 in Rain , Thunderstorm Light Thunderstorms and Rain
4:53 PM 75.0 °F - 72.0 °F 90% 30.04 in 10.0 mi Calm Calm - 0.10 in Rain , Thunderstorm Light Thunderstorms and Rain
5:53 PM 75.9 °F - 73.0 °F 91% 30.05 in 10.0 mi ESE 4.6 mph - 0.04 in Thunderstorm Thunderstorm
6:09 PM 75.9 °F - 73.0 °F 91% 30.06 in 10.0 mi Calm Calm - 0.00 in Rain Rain
6:53 PM 75.9 °F - 73.9 °F 94% 30.04 in 10.0 mi WNW 4.6 mph - 0.03 in   Mostly Cloudy
7:53 PM 75.9 °F - 73.9 °F 94% 30.03 in 10.0 mi WNW 4.6 mph - 0.00 in Rain Light Rain
8:53 PM 75.9 °F - 73.9 °F 94% 30.05 in 10.0 mi WSW 4.6 mph - 0.00 in   Mostly Cloudy
9:53 PM 75.9 °F - 73.9 °F 94% 30.04 in 10.0 mi SSE 6.9 mph - N/A   Mostly Cloudy
10:53 PM 75.9 °F - 73.9 °F 94% 30.05 in 10.0 mi SSE 8.1 mph - N/A   Mostly Cloudy
11:53 PM 75.9 °F - 73.9 °F 94% 30.05 in 10.0 mi SW 5.8 mph - N/A   Overcast